Location: Quedlinburg
(51.7921°N, 11.1414°E)
Time: 05:10:12
(UTC+02:00)

STRAND 1 - Pass Details

Date: 17 March 2026
Orbit: 761 x 775 km, 98.4° (Epoch: 16 April)

Event Time Altitude Azimuth Distance (km) Brightness Sun altitude
Rises 03:11:35 0° 107° (ESE) 3,242 ? -28.6°
Reaches altitude 10° 03:14:49 10° 86° (E) 2,317 ? -28.2°
Maximum altitude 03:17:40 15° 51° (NE) 1,976 ? -27.9°
Drops below altitude 10° 03:20:30 10° 17° (NNE) 2,319 ? -27.6°
Sets 03:23:44 0° 356° (N) 3,248 ? -27.2°
